This demonstration page uses our WeatherBlox Daily Observations layout. Learn more.

Left ArrowRight Arrow

41.12389, -100.76542

Hourly Observations for January 11, 2018

Temp ( °F °C ) Dew Point ( °F °C ) Humidity (%) Winds ( mph kmh ) Pressure ( in mb ) Visibility ( mi km ) Precip ( " mm )
12:01 am 00:01 Cloudy 16 -8.9 8 -13.3 71 71 NNW 21 33 30.06 1018 8 13 0.00 0.00
12:53 am 00:53 Cloudy 15 -9.4 6 -14.4 67 67 NNW 22 35 29.93 1014 9 14 0.00 0.00
1:53 am 01:53 Partly Cloudy with Isolated Snow Showers 13 -10.6 4 -15.6 67 67 NNW 16 26 29.95 1014 9 14 0.00 0.03
2:53 am 02:53 Clear with Light Snow 13 -10.6 2 -16.7 61 61 NNW 18 30 29.97 1015 9 14 0.00 0.03
3:53 am 03:53 Clear with Light Snow 13 -10.6 2 -16.7 61 61 NNW 15 24 30.02 1017 9 14 0.00 0.03
4:53 am 04:53 Partly Cloudy with Isolated Snow Showers 11 -11.7 0 -17.8 61 61 NNW 23 37 30.06 1018 9 14 0.00 0.03
5:53 am 05:53 Mostly Cloudy with Light Snow 10 -12.2 1 -17.2 67 67 NNW 16 26 30.08 1019 9 14 0.00 0.03
6:17 am 06:17 Partly Cloudy with Scattered Snow Showers 10 -12.2 1 -17.2 67 67 NNW 16 26 30.30 1026 9 14 0.00 0.03
6:53 am 06:53 Clear with Light Snow 9 -12.8 0 -17.8 66 66 NNW 16 26 30.12 1020 9 14 0.00 0.03
7:53 am 07:53 Windy with Snow Likely 7 -13.9 -3 -19.4 63 63 NNW 20 31 30.19 1022 9 14 0.00 0.03
8:53 am 08:53 Sunny 7 -13.9 -4 -20 60 60 NW 15 24 30.25 1024 10 16 0.00 0.03
9:53 am 09:53 Sunny 9 -12.8 -3 -19.4 58 58 NNW 17 28 30.29 1026 10 16 0.00 0.00
10:53 am 10:53 Sunny 12 -11.1 -1 -18.3 56 56 NNW 20 31 30.35 1028 10 16 0.00 0.00
11:53 am 11:53 Sunny 14 -10 1 -17.2 56 56 NNW 17 28 30.36 1028 10 16 0.00 0.00
12:53 pm 12:53 Sunny 15 -9.4 2 -16.7 56 56 NW 18 30 30.34 1027 10 16 0.00 0.00
1:53 pm 13:53 Sunny 16 -8.9 3 -16.1 56 56 NW 20 31 30.32 1027 10 16 0.00 0.00
2:53 pm 14:53 Sunny 17 -8.3 3 -16.1 54 54 NW 18 30 30.34 1027 10 16 0.00 0.00
3:53 pm 15:53 Sunny 18 -7.8 4 -15.6 54 54 N 15 24 30.35 1028 10 16 0.00 0.00
4:53 pm 16:53 Sunny 17 -8.3 4 -15.6 56 56 N 9 15 30.37 1029 10 16 0.00 0.00
5:53 pm 17:53 Clear 12 -11.1 2 -16.7 64 64 N 7 11 30.40 1029 10 16 0.00 0.00
6:53 pm 18:53 Clear 10 -12.2 1 -17.2 67 67 N 5 7 30.41 1030 10 16 0.00 0.00
7:53 pm 19:53 Clear 4 -15.6 -2 -18.9 76 76 ENE 5 7 30.42 1030 10 16 0.00 0.00
8:53 pm 20:53 Clear 1 -17.2 -4 -20 79 79 NE 3 6 30.43 1031 10 16 0.00 0.00
9:53 pm 21:53 Clear 0 -17.8 -5 -20.6 79 79 WSW 6 9 30.45 1031 10 16 0.00 0.00
10:53 pm 22:53 Clear 2 -16.7 -4 -20 76 76 WNW 5 7 30.46 1032 10 16 0.00 0.00
11:53 pm 23:53 Clear 0 -17.8 -6 -21.1 76 76 Calm 30.46 1032 10 16 0.00 0.00

Powered by AerisWeather